segment_id,date_local,uptime,ped_lft,ped_rgt,ped_total,bike_lft,bike_rgt,bike_total,car_lft,car_rgt,car_total,heavy_lft,heavy_rgt,heavy_total,v85,car_speed0,car_speed10,car_speed20,car_speed30,car_speed40,car_speed50,car_speed60,car_speed70
100024661,2021-04-01 00:00,1.0,,,,37,24,61,,,,,,,
100024661,2021-04-01 01:00,1.0,,,,23,9,32,,,,,,,
100024661,2021-04-01 02:00,1.0,,,,9,7,16,,,,,,,
100024661,2021-04-01 03:00,1.0,,,,4,3,7,,,,,,,
100024661,2021-04-01 04:00,1.0,,,,3,4,7,,,,,,,
100024661,2021-04-01 05:00,1.0,,,,14,12,26,,,,,,,
100024661,2021-04-01 06:00,1.0,,,,41,24,65,,,,,,,
100024661,2021-04-01 07:00,1.0,,,,95,89,184,,,,,,,
100024661,2021-04-01 08:00,1.0,,,,207,224,431,,,,,,,
100024661,2021-04-01 09:00,1.0,,,,246,435,681,,,,,,,
100024661,2021-04-01 10:00,1.0,,,,181,270,451,,,,,,,
100024661,2021-04-01 11:00,1.0,,,,191,164,355,,,,,,,
100024661,2021-04-01 12:00,1.0,,,,198,180,378,,,,,,,
100024661,2021-04-01 13:00,1.0,,,,212,186,398,,,,,,,
100024661,2021-04-01 14:00,1.0,,,,242,193,435,,,,,,,
100024661,2021-04-01 15:00,1.0,,,,286,173,459,,,,,,,
100024661,2021-04-01 16:00,1.0,,,,302,194,496,,,,,,,
100024661,2021-04-01 17:00,1.0,,,,289,202,491,,,,,,,
100024661,2021-04-01 18:00,1.0,,,,359,267,626,,,,,,,
100024661,2021-04-01 19:00,1.0,,,,225,294,519,,,,,,,
100024661,2021-04-01 20:00,1.0,,,,145,168,313,,,,,,,
100024661,2021-04-01 21:00,1.0,,,,91,96,187,,,,,,,
100024661,2021-04-01 22:00,1.0,,,,65,55,120,,,,,,,
100024661,2021-04-01 23:00,1.0,,,,40,38,78,,,,,,,
100024661,2021-04-02 00:00,1.0,,,,21,30,51,,,,,,,
100024661,2021-04-02 01:00,1.0,,,,19,14,33,,,,,,,
100024661,2021-04-02 02:00,1.0,,,,8,13,21,,,,,,,
100024661,2021-04-02 03:00,1.0,,,,4,4,8,,,,,,,
100024661,2021-04-02 04:00,1.0,,,,3,4,7,,,,,,,
100024661,2021-04-02 05:00,1.0,,,,2,7,9,,,,,,,
100024661,2021-04-02 06:00,1.0,,,,6,7,13,,,,,,,
100024661,2021-04-02 07:00,1.0,,,,12,10,22,,,,,,,
100024661,2021-04-02 08:00,1.0,,,,34,34,68,,,,,,,
100024661,2021-04-02 09:00,1.0,,,,52,62,114,,,,,,,
100024661,2021-04-02 10:00,1.0,,,,69,70,139,,,,,,,
100024661,2021-04-02 11:00,1.0,,,,138,114,252,,,,,,,
100024661,2021-04-02 12:00,1.0,,,,133,156,289,,,,,,,
100024661,2021-04-02 13:00,1.0,,,,165,234,399,,,,,,,
100024661,2021-04-02 14:00,1.0,,,,226,246,472,,,,,,,
100024661,2021-04-02 15:00,1.0,,,,182,203,385,,,,,,,
100024661,2021-04-02 16:00,1.0,,,,179,202,381,,,,,,,
100024661,2021-04-02 17:00,1.0,,,,217,207,424,,,,,,,
100024661,2021-04-02 18:00,1.0,,,,174,127,301,,,,,,,
100024661,2021-04-02 19:00,1.0,,,,107,100,207,,,,,,,
100024661,2021-04-02 20:00,1.0,,,,73,94,167,,,,,,,
100024661,2021-04-02 21:00,1.0,,,,69,56,125,,,,,,,
100024661,2021-04-02 22:00,1.0,,,,39,39,78,,,,,,,
100024661,2021-04-02 23:00,1.0,,,,35,37,72,,,,,,,
100024661,2021-04-03 00:00,1.0,,,,35,16,51,,,,,,,
100024661,2021-04-03 01:00,1.0,,,,18,13,31,,,,,,,
100024661,2021-04-03 02:00,1.0,,,,7,8,15,,,,,,,
100024661,2021-04-03 03:00,1.0,,,,4,4,8,,,,,,,
100024661,2021-04-03 04:00,1.0,,,,4,8,12,,,,,,,
100024661,2021-04-03 05:00,1.0,,,,5,3,8,,,,,,,
100024661,2021-04-03 06:00,1.0,,,,13,11,24,,,,,,,
100024661,2021-04-03 07:00,1.0,,,,16,14,30,,,,,,,
100024661,2021-04-03 08:00,1.0,,,,27,18,45,,,,,,,
100024661,2021-04-03 09:00,1.0,,,,71,63,134,,,,,,,
100024661,2021-04-03 10:00,1.0,,,,104,91,195,,,,,,,
100024661,2021-04-03 11:00,1.0,,,,131,136,267,,,,,,,
100024661,2021-04-03 12:00,1.0,,,,150,159,309,,,,,,,
100024661,2021-04-03 13:00,1.0,,,,193,177,370,,,,,,,
100024661,2021-04-03 14:00,1.0,,,,153,177,330,,,,,,,
100024661,2021-04-03 15:00,1.0,,,,181,232,413,,,,,,,
100024661,2021-04-03 16:00,1.0,,,,179,167,346,,,,,,,
100024661,2021-04-03 17:00,1.0,,,,148,172,320,,,,,,,
100024661,2021-04-03 18:00,1.0,,,,157,167,324,,,,,,,
100024661,2021-04-03 19:00,1.0,,,,123,130,253,,,,,,,
100024661,2021-04-03 20:00,1.0,,,,77,86,163,,,,,,,
100024661,2021-04-03 21:00,1.0,,,,50,44,94,,,,,,,
100024661,2021-04-03 22:00,1.0,,,,39,31,70,,,,,,,
100024661,2021-04-03 23:00,1.0,,,,35,31,66,,,,,,,
100024661,2021-04-04 00:00,1.0,,,,24,19,43,,,,,,,
100024661,2021-04-04 01:00,1.0,,,,21,26,47,,,,,,,
100024661,2021-04-04 02:00,1.0,,,,11,18,29,,,,,,,
100024661,2021-04-04 03:00,1.0,,,,4,5,9,,,,,,,
100024661,2021-04-04 04:00,1.0,,,,9,2,11,,,,,,,
100024661,2021-04-04 05:00,1.0,,,,6,5,11,,,,,,,
100024661,2021-04-04 06:00,1.0,,,,12,9,21,,,,,,,
100024661,2021-04-04 07:00,1.0,,,,11,12,23,,,,,,,
100024661,2021-04-04 08:00,1.0,,,,11,10,21,,,,,,,
100024661,2021-04-04 09:00,1.0,,,,38,39,77,,,,,,,
100024661,2021-04-04 10:00,1.0,,,,82,53,135,,,,,,,
100024661,2021-04-04 11:00,1.0,,,,83,121,204,,,,,,,
100024661,2021-04-04 12:00,1.0,,,,136,127,263,,,,,,,
100024661,2021-04-04 13:00,1.0,,,,129,180,309,,,,,,,
100024661,2021-04-04 14:00,1.0,,,,175,178,353,,,,,,,
100024661,2021-04-04 15:00,1.0,,,,115,162,277,,,,,,,
100024661,2021-04-04 16:00,1.0,,,,133,132,265,,,,,,,
100024661,2021-04-04 17:00,1.0,,,,148,137,285,,,,,,,
100024661,2021-04-04 18:00,1.0,,,,122,134,256,,,,,,,
100024661,2021-04-04 19:00,1.0,,,,102,135,237,,,,,,,
100024661,2021-04-04 20:00,1.0,,,,84,91,175,,,,,,,
100024661,2021-04-04 21:00,1.0,,,,64,42,106,,,,,,,
100024661,2021-04-04 22:00,1.0,,,,46,36,82,,,,,,,
100024661,2021-04-04 23:00,1.0,,,,19,37,56,,,,,,,
100024661,2021-04-05 00:00,1.0,,,,18,28,46,,,,,,,
100024661,2021-04-05 01:00,1.0,,,,10,8,18,,,,,,,
100024661,2021-04-05 02:00,1.0,,,,7,11,18,,,,,,,
100024661,2021-04-05 03:00,1.0,,,,6,2,8,,,,,,,
100024661,2021-04-05 04:00,1.0,,,,3,2,5,,,,,,,
100024661,2021-04-05 05:00,1.0,,,,1,6,7,,,,,,,
100024661,2021-04-05 06:00,1.0,,,,4,2,6,,,,,,,
100024661,2021-04-05 07:00,1.0,,,,13,10,23,,,,,,,
100024661,2021-04-05 08:00,1.0,,,,16,15,31,,,,,,,
100024661,2021-04-05 09:00,1.0,,,,11,17,28,,,,,,,
100024661,2021-04-05 10:00,1.0,,,,26,7,33,,,,,,,
100024661,2021-04-05 11:00,1.0,,,,19,23,42,,,,,,,
100024661,2021-04-05 12:00,1.0,,,,43,35,78,,,,,,,
100024661,2021-04-05 13:00,1.0,,,,45,42,87,,,,,,,
100024661,2021-04-05 14:00,1.0,,,,21,37,58,,,,,,,
100024661,2021-04-05 15:00,1.0,,,,46,57,103,,,,,,,
100024661,2021-04-05 16:00,1.0,,,,90,53,143,,,,,,,
100024661,2021-04-05 17:00,1.0,,,,62,94,156,,,,,,,
100024661,2021-04-05 18:00,1.0,,,,77,77,154,,,,,,,
100024661,2021-04-05 19:00,1.0,,,,54,67,121,,,,,,,
100024661,2021-04-05 20:00,1.0,,,,48,70,118,,,,,,,
100024661,2021-04-05 21:00,1.0,,,,34,30,64,,,,,,,
100024661,2021-04-05 22:00,1.0,,,,31,21,52,,,,,,,
100024661,2021-04-05 23:00,1.0,,,,15,12,27,,,,,,,
100024661,2021-04-06 00:00,1.0,,,,9,10,19,,,,,,,
100024661,2021-04-06 01:00,1.0,,,,6,6,12,,,,,,,
100024661,2021-04-06 02:00,1.0,,,,1,1,2,,,,,,,
100024661,2021-04-06 03:00,1.0,,,,2,1,3,,,,,,,
100024661,2021-04-06 04:00,1.0,,,,3,8,11,,,,,,,
100024661,2021-04-06 05:00,1.0,,,,11,26,37,,,,,,,
100024661,2021-04-06 06:00,1.0,,,,31,49,80,,,,,,,
100024661,2021-04-06 07:00,1.0,,,,80,120,200,,,,,,,
100024661,2021-04-06 08:00,1.0,,,,169,249,418,,,,,,,
100024661,2021-04-06 09:00,1.0,,,,190,229,419,,,,,,,
100024661,2021-04-06 10:00,1.0,,,,114,132,246,,,,,,,
100024661,2021-04-06 11:00,1.0,,,,114,123,237,,,,,,,
100024661,2021-04-06 12:00,1.0,,,,144,114,258,,,,,,,
100024661,2021-04-06 13:00,1.0,,,,140,117,257,,,,,,,
100024661,2021-04-06 14:00,1.0,,,,109,119,228,,,,,,,
100024661,2021-04-06 15:00,1.0,,,,183,126,309,,,,,,,
100024661,2021-04-06 16:00,1.0,,,,185,150,335,,,,,,,
100024661,2021-04-06 17:00,1.0,,,,209,173,382,,,,,,,
100024661,2021-04-06 18:00,1.0,,,,185,160,345,,,,,,,
100024661,2021-04-06 19:00,1.0,,,,141,138,279,,,,,,,
100024661,2021-04-06 20:00,1.0,,,,107,77,184,,,,,,,
100024661,2021-04-06 21:00,1.0,,,,52,38,90,,,,,,,
100024661,2021-04-06 22:00,1.0,,,,35,41,76,,,,,,,
100024661,2021-04-06 23:00,1.0,,,,15,23,38,,,,,,,
100024661,2021-04-07 00:00,1.0,,,,7,10,17,,,,,,,
100024661,2021-04-07 01:00,1.0,,,,5,3,8,,,,,,,
100024661,2021-04-07 02:00,1.0,,,,2,1,3,,,,,,,
100024661,2021-04-07 03:00,1.0,,,,2,1,3,,,,,,,
100024661,2021-04-07 04:00,1.0,,,,3,6,9,,,,,,,
100024661,2021-04-07 05:00,1.0,,,,8,23,31,,,,,,,
100024661,2021-04-07 06:00,1.0,,,,32,66,98,,,,,,,
100024661,2021-04-07 07:00,1.0,,,,88,117,205,,,,,,,
100024661,2021-04-07 08:00,1.0,,,,197,258,455,,,,,,,
100024661,2021-04-07 09:00,1.0,,,,148,197,345,,,,,,,
100024661,2021-04-07 10:00,1.0,,,,96,95,191,,,,,,,
100024661,2021-04-07 11:00,1.0,,,,109,106,215,,,,,,,
100024661,2021-04-07 12:00,1.0,,,,137,128,265,,,,,,,
100024661,2021-04-07 13:00,1.0,,,,121,105,226,,,,,,,
100024661,2021-04-07 14:00,1.0,,,,161,166,327,,,,,,,
100024661,2021-04-07 15:00,1.0,,,,181,144,325,,,,,,,
100024661,2021-04-07 16:00,1.0,,,,188,160,348,,,,,,,
100024661,2021-04-07 17:00,1.0,,,,268,172,440,,,,,,,
100024661,2021-04-07 18:00,1.0,,,,299,236,535,,,,,,,
100024661,2021-04-07 19:00,1.0,,,,178,132,310,,,,,,,
100024661,2021-04-07 20:00,1.0,,,,90,73,163,,,,,,,
100024661,2021-04-07 21:00,1.0,,,,51,34,85,,,,,,,
100024661,2021-04-07 22:00,1.0,,,,43,28,71,,,,,,,
100024661,2021-04-07 23:00,1.0,,,,24,28,52,,,,,,,
100024661,2021-04-08 00:00,1.0,,,,14,17,31,,,,,,,
100024661,2021-04-08 01:00,1.0,,,,10,7,17,,,,,,,
100024661,2021-04-08 02:00,1.0,,,,3,2,5,,,,,,,
100024661,2021-04-08 03:00,1.0,,,,2,0,2,,,,,,,
100024661,2021-04-08 04:00,1.0,,,,5,6,11,,,,,,,
100024661,2021-04-08 05:00,1.0,,,,8,13,21,,,,,,,
100024661,2021-04-08 06:00,1.0,,,,34,48,82,,,,,,,
100024661,2021-04-08 07:00,1.0,,,,74,96,170,,,,,,,
100024661,2021-04-08 08:00,1.0,,,,175,260,435,,,,,,,
100024661,2021-04-08 09:00,1.0,,,,222,228,450,,,,,,,
100024661,2021-04-08 10:00,1.0,,,,144,111,255,,,,,,,
100024661,2021-04-08 11:00,1.0,,,,102,131,233,,,,,,,
100024661,2021-04-08 12:00,1.0,,,,96,125,221,,,,,,,
100024661,2021-04-08 13:00,1.0,,,,168,135,303,,,,,,,
100024661,2021-04-08 14:00,1.0,,,,153,168,321,,,,,,,
100024661,2021-04-08 15:00,1.0,,,,214,181,395,,,,,,,
100024661,2021-04-08 16:00,1.0,,,,203,194,397,,,,,,,
100024661,2021-04-08 17:00,1.0,,,,254,187,441,,,,,,,
100024661,2021-04-08 18:00,1.0,,,,300,254,554,,,,,,,
100024661,2021-04-08 19:00,1.0,,,,177,202,379,,,,,,,
100024661,2021-04-08 20:00,1.0,,,,129,128,257,,,,,,,
100024661,2021-04-08 21:00,1.0,,,,87,74,161,,,,,,,
100024661,2021-04-08 22:00,1.0,,,,61,39,100,,,,,,,
100024661,2021-04-08 23:00,1.0,,,,29,34,63,,,,,,,
100024661,2021-04-09 00:00,1.0,,,,18,14,32,,,,,,,
100024661,2021-04-09 01:00,1.0,,,,13,9,22,,,,,,,
100024661,2021-04-09 02:00,1.0,,,,4,6,10,,,,,,,
100024661,2021-04-09 03:00,1.0,,,,5,1,6,,,,,,,
100024661,2021-04-09 04:00,1.0,,,,4,5,9,,,,,,,
100024661,2021-04-09 05:00,1.0,,,,8,22,30,,,,,,,
100024661,2021-04-09 06:00,1.0,,,,35,64,99,,,,,,,
100024661,2021-04-09 07:00,1.0,,,,92,110,202,,,,,,,
100024661,2021-04-09 08:00,1.0,,,,191,263,454,,,,,,,
100024661,2021-04-09 09:00,1.0,,,,202,234,436,,,,,,,
100024661,2021-04-09 10:00,1.0,,,,161,145,306,,,,,,,
100024661,2021-04-09 11:00,1.0,,,,135,170,305,,,,,,,
100024661,2021-04-09 12:00,1.0,,,,193,184,377,,,,,,,
100024661,2021-04-09 13:00,1.0,,,,209,212,421,,,,,,,
100024661,2021-04-09 14:00,1.0,,,,255,233,488,,,,,,,
100024661,2021-04-09 15:00,1.0,,,,268,245,513,,,,,,,
100024661,2021-04-09 16:00,1.0,,,,288,254,542,,,,,,,
100024661,2021-04-09 17:00,1.0,,,,266,267,533,,,,,,,
100024661,2021-04-09 18:00,1.0,,,,340,292,632,,,,,,,
100024661,2021-04-09 19:00,1.0,,,,225,234,459,,,,,,,
100024661,2021-04-09 20:00,1.0,,,,138,142,280,,,,,,,
100024661,2021-04-09 21:00,1.0,,,,91,85,176,,,,,,,
100024661,2021-04-09 22:00,1.0,,,,69,70,139,,,,,,,
100024661,2021-04-09 23:00,1.0,,,,49,44,93,,,,,,,
100024661,2021-04-10 00:00,1.0,,,,38,55,93,,,,,,,
100024661,2021-04-10 01:00,1.0,,,,27,36,63,,,,,,,
100024661,2021-04-10 02:00,1.0,,,,14,10,24,,,,,,,
100024661,2021-04-10 03:00,1.0,,,,9,10,19,,,,,,,
100024661,2021-04-10 04:00,1.0,,,,10,2,12,,,,,,,
100024661,2021-04-10 05:00,1.0,,,,10,5,15,,,,,,,
100024661,2021-04-10 06:00,1.0,,,,18,6,24,,,,,,,
100024661,2021-04-10 07:00,1.0,,,,11,10,21,,,,,,,
100024661,2021-04-10 08:00,1.0,,,,25,15,40,,,,,,,
100024661,2021-04-10 09:00,1.0,,,,58,48,106,,,,,,,
100024661,2021-04-10 10:00,1.0,,,,56,78,134,,,,,,,
100024661,2021-04-10 11:00,1.0,,,,81,92,173,,,,,,,
100024661,2021-04-10 12:00,1.0,,,,106,107,213,,,,,,,
100024661,2021-04-10 13:00,1.0,,,,147,216,363,,,,,,,
100024661,2021-04-10 14:00,1.0,,,,152,231,383,,,,,,,
100024661,2021-04-10 15:00,1.0,,,,174,152,326,,,,,,,
100024661,2021-04-10 16:00,1.0,,,,180,191,371,,,,,,,
100024661,2021-04-10 17:00,1.0,,,,139,191,330,,,,,,,
100024661,2021-04-10 18:00,1.0,,,,168,187,355,,,,,,,
100024661,2021-04-10 19:00,1.0,,,,141,126,267,,,,,,,
100024661,2021-04-10 20:00,1.0,,,,97,101,198,,,,,,,
100024661,2021-04-10 21:00,1.0,,,,65,62,127,,,,,,,
100024661,2021-04-10 22:00,1.0,,,,40,46,86,,,,,,,
100024661,2021-04-10 23:00,1.0,,,,31,33,64,,,,,,,
100024661,2021-04-11 00:00,1.0,,,,23,23,46,,,,,,,
100024661,2021-04-11 01:00,1.0,,,,19,20,39,,,,,,,
100024661,2021-04-11 02:00,1.0,,,,10,7,17,,,,,,,
100024661,2021-04-11 03:00,1.0,,,,6,5,11,,,,,,,
100024661,2021-04-11 04:00,1.0,,,,3,5,8,,,,,,,
100024661,2021-04-11 05:00,1.0,,,,7,6,13,,,,,,,
100024661,2021-04-11 06:00,1.0,,,,8,5,13,,,,,,,
100024661,2021-04-11 07:00,1.0,,,,9,8,17,,,,,,,
100024661,2021-04-11 08:00,1.0,,,,16,13,29,,,,,,,
100024661,2021-04-11 09:00,1.0,,,,71,33,104,,,,,,,
100024661,2021-04-11 10:00,1.0,,,,76,67,143,,,,,,,
100024661,2021-04-11 11:00,1.0,,,,110,136,246,,,,,,,
100024661,2021-04-11 12:00,1.0,,,,160,180,340,,,,,,,
100024661,2021-04-11 13:00,1.0,,,,216,229,445,,,,,,,
100024661,2021-04-11 14:00,1.0,,,,239,314,553,,,,,,,
100024661,2021-04-11 15:00,1.0,,,,247,295,542,,,,,,,
100024661,2021-04-11 16:00,1.0,,,,224,264,488,,,,,,,
100024661,2021-04-11 17:00,1.0,,,,278,256,534,,,,,,,
100024661,2021-04-11 18:00,1.0,,,,251,232,483,,,,,,,
100024661,2021-04-11 19:00,1.0,,,,219,178,397,,,,,,,
100024661,2021-04-11 20:00,1.0,,,,109,114,223,,,,,,,
100024661,2021-04-11 21:00,1.0,,,,67,54,121,,,,,,,
100024661,2021-04-11 22:00,1.0,,,,40,43,83,,,,,,,
100024661,2021-04-11 23:00,1.0,,,,26,29,55,,,,,,,
100024661,2021-04-12 00:00,1.0,,,,12,12,24,,,,,,,
100024661,2021-04-12 01:00,1.0,,,,10,13,23,,,,,,,
100024661,2021-04-12 02:00,1.0,,,,9,1,10,,,,,,,
100024661,2021-04-12 03:00,1.0,,,,1,0,1,,,,,,,
100024661,2021-04-12 04:00,1.0,,,,4,11,15,,,,,,,
100024661,2021-04-12 05:00,1.0,,,,14,23,37,,,,,,,
100024661,2021-04-12 06:00,1.0,,,,39,55,94,,,,,,,
100024661,2021-04-12 07:00,1.0,,,,129,157,286,,,,,,,
100024661,2021-04-12 08:00,1.0,,,,239,368,607,,,,,,,
100024661,2021-04-12 09:00,1.0,,,,221,263,484,,,,,,,
100024661,2021-04-12 10:00,1.0,,,,140,138,278,,,,,,,
100024661,2021-04-12 11:00,1.0,,,,125,122,247,,,,,,,
100024661,2021-04-12 12:00,1.0,,,,140,112,252,,,,,,,
100024661,2021-04-12 13:00,1.0,,,,151,161,312,,,,,,,
100024661,2021-04-12 14:00,1.0,,,,181,166,347,,,,,,,
100024661,2021-04-12 15:00,1.0,,,,223,182,405,,,,,,,
100024661,2021-04-12 16:00,1.0,,,,236,199,435,,,,,,,
100024661,2021-04-12 17:00,1.0,,,,295,238,533,,,,,,,
100024661,2021-04-12 18:00,1.0,,,,355,274,629,,,,,,,
100024661,2021-04-12 19:00,1.0,,,,232,233,465,,,,,,,
100024661,2021-04-12 20:00,1.0,,,,143,109,252,,,,,,,
100024661,2021-04-12 21:00,1.0,,,,63,53,116,,,,,,,
100024661,2021-04-12 22:00,1.0,,,,57,41,98,,,,,,,
100024661,2021-04-12 23:00,1.0,,,,29,22,51,,,,,,,
100024661,2021-04-13 00:00,1.0,,,,12,17,29,,,,,,,
100024661,2021-04-13 01:00,1.0,,,,7,8,15,,,,,,,
100024661,2021-04-13 02:00,1.0,,,,1,3,4,,,,,,,
100024661,2021-04-13 03:00,1.0,,,,2,5,7,,,,,,,
100024661,2021-04-13 04:00,1.0,,,,6,9,15,,,,,,,
100024661,2021-04-13 05:00,1.0,,,,9,29,38,,,,,,,
100024661,2021-04-13 06:00,1.0,,,,48,85,133,,,,,,,
100024661,2021-04-13 07:00,1.0,,,,151,196,347,,,,,,,
100024661,2021-04-13 08:00,1.0,,,,263,440,703,,,,,,,
100024661,2021-04-13 09:00,1.0,,,,278,357,635,,,,,,,
100024661,2021-04-13 10:00,1.0,,,,172,197,369,,,,,,,
100024661,2021-04-13 11:00,1.0,,,,181,156,337,,,,,,,
100024661,2021-04-13 12:00,1.0,,,,189,177,366,,,,,,,
100024661,2021-04-13 13:00,1.0,,,,191,220,411,,,,,,,
100024661,2021-04-13 14:00,1.0,,,,230,198,428,,,,,,,
100024661,2021-04-13 15:00,1.0,,,,273,244,517,,,,,,,
100024661,2021-04-13 16:00,1.0,,,,329,213,542,,,,,,,
100024661,2021-04-13 17:00,1.0,,,,364,303,667,,,,,,,
100024661,2021-04-13 18:00,1.0,,,,404,358,762,,,,,,,
100024661,2021-04-13 19:00,1.0,,,,277,234,511,,,,,,,
100024661,2021-04-13 20:00,1.0,,,,167,141,308,,,,,,,
100024661,2021-04-13 21:00,1.0,,,,92,88,180,,,,,,,
100024661,2021-04-13 22:00,1.0,,,,51,55,106,,,,,,,
100024661,2021-04-13 23:00,1.0,,,,47,48,95,,,,,,,
100024661,2021-04-14 00:00,1.0,,,,18,17,35,,,,,,,
100024661,2021-04-14 01:00,1.0,,,,6,14,20,,,,,,,
100024661,2021-04-14 02:00,1.0,,,,3,6,9,,,,,,,
100024661,2021-04-14 03:00,1.0,,,,2,5,7,,,,,,,
100024661,2021-04-14 04:00,1.0,,,,4,7,11,,,,,,,
100024661,2021-04-14 05:00,1.0,,,,11,29,40,,,,,,,
100024661,2021-04-14 06:00,1.0,,,,44,85,129,,,,,,,
100024661,2021-04-14 07:00,1.0,,,,145,224,369,,,,,,,
100024661,2021-04-14 08:00,1.0,,,,269,460,729,,,,,,,
100024661,2021-04-14 09:00,1.0,,,,280,345,625,,,,,,,
100024661,2021-04-14 10:00,1.0,,,,177,184,361,,,,,,,
100024661,2021-04-14 11:00,1.0,,,,181,166,347,,,,,,,
100024661,2021-04-14 12:00,1.0,,,,177,180,357,,,,,,,
100024661,2021-04-14 13:00,1.0,,,,201,191,392,,,,,,,
100024661,2021-04-14 14:00,1.0,,,,191,195,386,,,,,,,
100024661,2021-04-14 15:00,1.0,,,,267,188,455,,,,,,,
100024661,2021-04-14 16:00,1.0,,,,335,222,557,,,,,,,
100024661,2021-04-14 17:00,1.0,,,,343,294,637,,,,,,,
100024661,2021-04-14 18:00,1.0,,,,399,345,744,,,,,,,
100024661,2021-04-14 19:00,1.0,,,,298,248,546,,,,,,,
100024661,2021-04-14 20:00,1.0,,,,165,136,301,,,,,,,
100024661,2021-04-14 21:00,1.0,,,,94,83,177,,,,,,,
100024661,2021-04-14 22:00,1.0,,,,58,61,119,,,,,,,
100024661,2021-04-14 23:00,1.0,,,,54,53,107,,,,,,,
100024661,2021-04-15 00:00,1.0,,,,13,25,38,,,,,,,
100024661,2021-04-15 01:00,1.0,,,,14,13,27,,,,,,,
100024661,2021-04-15 02:00,1.0,,,,4,3,7,,,,,,,
100024661,2021-04-15 03:00,1.0,,,,2,3,5,,,,,,,
100024661,2021-04-15 04:00,1.0,,,,5,9,14,,,,,,,
100024661,2021-04-15 05:00,1.0,,,,10,27,37,,,,,,,
100024661,2021-04-15 06:00,1.0,,,,46,83,129,,,,,,,
100024661,2021-04-15 07:00,1.0,,,,138,195,333,,,,,,,
100024661,2021-04-15 08:00,1.0,,,,256,448,704,,,,,,,
100024661,2021-04-15 09:00,1.0,,,,274,335,609,,,,,,,
100024661,2021-04-15 10:00,1.0,,,,154,185,339,,,,,,,
100024661,2021-04-15 11:00,1.0,,,,201,150,351,,,,,,,
100024661,2021-04-15 12:00,1.0,,,,193,176,369,,,,,,,
100024661,2021-04-15 13:00,1.0,,,,185,182,367,,,,,,,
100024661,2021-04-15 14:00,1.0,,,,229,199,428,,,,,,,
100024661,2021-04-15 15:00,1.0,,,,254,220,474,,,,,,,
100024661,2021-04-15 16:00,1.0,,,,280,182,462,,,,,,,
100024661,2021-04-15 17:00,1.0,,,,326,333,659,,,,,,,
100024661,2021-04-15 18:00,1.0,,,,386,434,820,,,,,,,
100024661,2021-04-15 19:00,1.0,,,,315,227,542,,,,,,,
100024661,2021-04-15 20:00,1.0,,,,187,118,305,,,,,,,
100024661,2021-04-15 21:00,1.0,,,,90,60,150,,,,,,,
100024661,2021-04-15 22:00,1.0,,,,51,48,99,,,,,,,
100024661,2021-04-15 23:00,1.0,,,,31,35,66,,,,,,,
100024661,2021-04-16 00:00,1.0,,,,30,17,47,,,,,,,
100024661,2021-04-16 01:00,1.0,,,,8,6,14,,,,,,,
100024661,2021-04-16 02:00,1.0,,,,4,6,10,,,,,,,
100024661,2021-04-16 03:00,1.0,,,,7,2,9,,,,,,,
100024661,2021-04-16 04:00,1.0,,,,6,7,13,,,,,,,
100024661,2021-04-16 05:00,1.0,,,,11,17,28,,,,,,,
100024661,2021-04-16 06:00,1.0,,,,40,72,112,,,,,,,
100024661,2021-04-16 07:00,1.0,,,,116,171,287,,,,,,,
100024661,2021-04-16 08:00,1.0,,,,229,347,576,,,,,,,
100024661,2021-04-16 09:00,1.0,,,,266,301,567,,,,,,,
100024661,2021-04-16 10:00,1.0,,,,174,159,333,,,,,,,
100024661,2021-04-16 11:00,1.0,,,,164,168,332,,,,,,,
100024661,2021-04-16 12:00,1.0,,,,201,181,382,,,,,,,
100024661,2021-04-16 13:00,1.0,,,,241,199,440,,,,,,,
100024661,2021-04-16 14:00,1.0,,,,281,261,542,,,,,,,
100024661,2021-04-16 15:00,1.0,,,,309,248,557,,,,,,,
100024661,2021-04-16 16:00,1.0,,,,346,275,621,,,,,,,
100024661,2021-04-16 17:00,1.0,,,,361,324,685,,,,,,,
100024661,2021-04-16 18:00,1.0,,,,415,361,776,,,,,,,
100024661,2021-04-16 19:00,1.0,,,,310,274,584,,,,,,,
100024661,2021-04-16 20:00,1.0,,,,180,189,369,,,,,,,
100024661,2021-04-16 21:00,1.0,,,,128,114,242,,,,,,,
100024661,2021-04-16 22:00,1.0,,,,88,87,175,,,,,,,
100024661,2021-04-16 23:00,1.0,,,,47,57,104,,,,,,,
100024661,2021-04-17 00:00,1.0,,,,43,46,89,,,,,,,
100024661,2021-04-17 01:00,1.0,,,,29,26,55,,,,,,,
100024661,2021-04-17 02:00,1.0,,,,17,15,32,,,,,,,
100024661,2021-04-17 03:00,1.0,,,,11,13,24,,,,,,,
100024661,2021-04-17 04:00,1.0,,,,3,8,11,,,,,,,
100024661,2021-04-17 05:00,1.0,,,,4,5,9,,,,,,,
100024661,2021-04-17 06:00,1.0,,,,11,11,22,,,,,,,
100024661,2021-04-17 07:00,1.0,,,,20,17,37,,,,,,,
100024661,2021-04-17 08:00,1.0,,,,53,32,85,,,,,,,
100024661,2021-04-17 09:00,1.0,,,,94,79,173,,,,,,,
100024661,2021-04-17 10:00,1.0,,,,91,107,198,,,,,,,
100024661,2021-04-17 11:00,1.0,,,,167,133,300,,,,,,,
100024661,2021-04-17 12:00,1.0,,,,177,146,323,,,,,,,
100024661,2021-04-17 13:00,1.0,,,,218,216,434,,,,,,,
100024661,2021-04-17 14:00,1.0,,,,233,228,461,,,,,,,
100024661,2021-04-17 15:00,1.0,,,,229,257,486,,,,,,,
100024661,2021-04-17 16:00,1.0,,,,187,219,406,,,,,,,
100024661,2021-04-17 17:00,1.0,,,,242,233,475,,,,,,,
100024661,2021-04-17 18:00,1.0,,,,221,211,432,,,,,,,
100024661,2021-04-17 19:00,1.0,,,,212,185,397,,,,,,,
100024661,2021-04-17 20:00,1.0,,,,169,141,310,,,,,,,
100024661,2021-04-17 21:00,1.0,,,,84,89,173,,,,,,,
100024661,2021-04-17 22:00,1.0,,,,81,50,131,,,,,,,
100024661,2021-04-17 23:00,1.0,,,,62,36,98,,,,,,,
100024661,2021-04-18 00:00,1.0,,,,27,34,61,,,,,,,
100024661,2021-04-18 01:00,1.0,,,,31,34,65,,,,,,,
100024661,2021-04-18 02:00,1.0,,,,18,23,41,,,,,,,
100024661,2021-04-18 03:00,1.0,,,,5,5,10,,,,,,,
100024661,2021-04-18 04:00,1.0,,,,8,5,13,,,,,,,
100024661,2021-04-18 05:00,1.0,,,,4,4,8,,,,,,,
100024661,2021-04-18 06:00,1.0,,,,9,10,19,,,,,,,
100024661,2021-04-18 07:00,1.0,,,,9,9,18,,,,,,,
100024661,2021-04-18 08:00,1.0,,,,23,10,33,,,,,,,
100024661,2021-04-18 09:00,1.0,,,,18,24,42,,,,,,,
100024661,2021-04-18 10:00,1.0,,,,26,23,49,,,,,,,
100024661,2021-04-18 11:00,1.0,,,,34,29,63,,,,,,,
100024661,2021-04-18 12:00,1.0,,,,68,59,127,,,,,,,
100024661,2021-04-18 13:00,1.0,,,,112,105,217,,,,,,,
100024661,2021-04-18 14:00,1.0,,,,109,152,261,,,,,,,
100024661,2021-04-18 15:00,1.0,,,,134,130,264,,,,,,,
100024661,2021-04-18 16:00,1.0,,,,115,111,226,,,,,,,
100024661,2021-04-18 17:00,1.0,,,,116,125,241,,,,,,,
100024661,2021-04-18 18:00,1.0,,,,90,79,169,,,,,,,
100024661,2021-04-18 19:00,1.0,,,,69,80,149,,,,,,,
100024661,2021-04-18 20:00,1.0,,,,71,72,143,,,,,,,
100024661,2021-04-18 21:00,1.0,,,,47,41,88,,,,,,,
100024661,2021-04-18 22:00,1.0,,,,43,34,77,,,,,,,
100024661,2021-04-18 23:00,1.0,,,,20,23,43,,,,,,,
100024661,2021-04-19 00:00,1.0,,,,9,7,16,,,,,,,
100024661,2021-04-19 01:00,1.0,,,,7,4,11,,,,,,,
100024661,2021-04-19 02:00,1.0,,,,9,0,9,,,,,,,
100024661,2021-04-19 03:00,1.0,,,,3,2,5,,,,,,,
100024661,2021-04-19 04:00,1.0,,,,3,7,10,,,,,,,
100024661,2021-04-19 05:00,1.0,,,,11,28,39,,,,,,,
100024661,2021-04-19 06:00,1.0,,,,47,69,116,,,,,,,
100024661,2021-04-19 07:00,1.0,,,,132,221,353,,,,,,,
100024661,2021-04-19 08:00,1.0,,,,296,436,732,,,,,,,
100024661,2021-04-19 09:00,1.0,,,,283,322,605,,,,,,,
100024661,2021-04-19 10:00,1.0,,,,153,155,308,,,,,,,
100024661,2021-04-19 11:00,1.0,,,,175,143,318,,,,,,,
100024661,2021-04-19 12:00,1.0,,,,185,171,356,,,,,,,
100024661,2021-04-19 13:00,1.0,,,,214,188,402,,,,,,,
100024661,2021-04-19 14:00,1.0,,,,246,211,457,,,,,,,
100024661,2021-04-19 15:00,1.0,,,,295,236,531,,,,,,,
100024661,2021-04-19 16:00,1.0,,,,386,293,679,,,,,,,
100024661,2021-04-19 17:00,1.0,,,,384,357,741,,,,,,,
100024661,2021-04-19 18:00,1.0,,,,458,408,866,,,,,,,
100024661,2021-04-19 19:00,1.0,,,,313,278,591,,,,,,,
100024661,2021-04-19 20:00,1.0,,,,191,164,355,,,,,,,
100024661,2021-04-19 21:00,1.0,,,,129,108,237,,,,,,,
100024661,2021-04-19 22:00,1.0,,,,69,66,135,,,,,,,